Temperature
14 15 15 16 13 12 14 15 17 19 19 20 20 19 17 17 18 18 16 17 17 17 17 17 17 17 17 17 17 17 17 17 17 17 17 17 17 17 16 16 16 16 16 16 16 16 16 16 16
14 15 15 15 12 13 14 15 17 19 20 20 20 19 17 16 16 16 16 16 17 17 17 17 17 17 17 17 17 17 17 17 17 17 17 17 17 16 16 16 16 16 16 16 16 16 16 16 15
14 14 15 12 12 13 15 17 17 19 20 20 19 18 17 16 16 16 17 16 17 17 17 17 17 17 17 17 17 17 17 17 17 17 17 16 16 16 16 16 16 16 16 16 16 16 16 16 16
14 14 14 11 13 14 16 17 17 18 20 20 18 16 16 17 17 17 16 16 16 17 17 17 17 17 17 17 17 17 16 17 17 17 16 16 16 16 16 16 16 16 16 16 15 15 15 15 15
14 14 12 12 13 14 15 17 18 18 19 19 18 15 16 16 17 16 16 16 16 16 16 16 16 16 17 17 17 16 16 16 16 16 16 16 16 16 16 16 16 16 16 15 15 15 15 15 15
13 11 11 12 13 15 16 18 18 17 18 18 17 15 15 16 16 16 16 16 16 16 16 16 16 16 16 16 16 16 16 16 16 16 16 16 16 16 15 15 15 15 15 15 15 15 15 15 15
12 10 11 13 14 15 16 18 17 16 17 18 18 14 14 15 15 16 15 15 15 16 16 15 16 16 16 16 16 16 16 16 16 16 16 16 16 15 15 15 15 15 15 15 15 15 15 15 15
13 11 13 13 14 16 16 18 18 18 17 18 18 15 14 15 15 15 15 15 15 15 15 15 15 15 16 16 16 16 16 16 15 15 15 15 15 15 15 15 15 15 15 15 15 15 15 14 14
13 11 11 13 15 16 16 16 17 18 18 17 17 18 17 15 15 15 15 14 15 15 15 15 15 15 15 15 15 15 15 15 15 15 15 15 15 15 15 15 15 15 15 15 15 15 14 14 14
12 10 12 14 15 15 16 16 16 17 16 16 16 17 16 15 15 15 15 14 14 15 15 15 15 15 15 15 15 15 15 15 15 15 15 15 15 15 15 14 14 14 14 14 14 14 14 14 14
11 11 12 14 15 15 15 15 16 15 15 15 16 16 15 15 15 15 15 15 15 14 14 14 14 14 14 14 15 15 15 15 15 15 15 15 15 14 14 14 14 14 14 14 14 14 14 14 14
11 12 13 14 15 15 15 15 15 15 16 17 17 17 16 15 15 15 15 15 14 14 14 14 14 14 14 14 14 14 14 14 14 14 14 14 14 14 14 14 14 14 14 14 14 14 13 13 13
11 12 13 14 14 14 14 14 14 15 16 16 16 16 15 15 15 15 15 14 14 14 14 14 14 14 14 14 14 14 14 14 14 14 14 14 14 14 14 14 14 14 14 13 13 13 13 13 13
11 12 12 13 13 14 13 13 13 14 15 15 15 15 15 15 15 14 14 14 14 14 14 14 13 13 13 14 14 14 14 14 14 14 14 14 13 13 13 13 13 13 13 13 13 13 13 13 12
12 11 11 12 12 12 13 11 11 14 15 15 15 15 15 15 14 14 14 14 14 14 13 13 13 13 13 13 13 13 13 13 13 13 13 13 13 13 13 13 13 13 13 13 12 12 12 12 12
11 10 10 11 11 12 12 11 11 14 14 13 14 14 14 14 14 14 14 14 13 13 13 13 13 13 13 13 13 13 13 13 13 13 13 13 13 13 12 12 12 12 12 12 12 12 12 12 12
9 8 9 10 11 11 10 10 11 13 13 13 13 13 13 14 14 14 14 14 13 13 13 13 13 13 13 13 13 13 12 12 12 12 12 12 12 12 12 12 12 12 12 12 12 11 11 11 11
8 8 9 9 10 10 10 10 10 12 12 12 12 13 13 13 14 14 13 13 13 13 13 13 13 12 12 12 12 12 12 12 12 12 12 12 12 12 11 11 11 11 11 11 11 11 11 11 10
9 9 9 10 11 10 9 10 10 11 11 11 11 12 12 13 14 13 13 13 13 13 12 12 12 12 12 12 12 12 12 12 12 11 11 11 11 11 11 11 11 11 11 11 11 10 10 10 10
9 8 8 9 10 10 9 9 9 10 10 11 11 12 12 13 13 13 13 13 13 12 12 12 12 12 12 12 12 12 11 11 11 11 11 11 11 11 10 10 10 10 10 10 10 10 10 10 9
8 8 8 9 9 9 9 9 9 9 10 11 12 12 12 13 13 12 12 12 12 12 12 12 12 12 11 11 11 11 11 11 10 11 11 10 10 10 10 10 10 10 10 10 9 9 9 9 9
8 9 9 9 8 7 8 7 8 8 9 9 10 11 12 12 12 12 12 12 12 12 12 12 11 11 11 11 10 10 10 10 10 10 10 10 10 10 9 9 9 9 9 9 9 9 8 8 8
8 9 9 8 7 7 7 6 7 7 8 9 9 10 11 12 12 12 12 12 12 12 12 11 11 11 10 10 10 10 10 10 10 9 9 9 9 9 9 9 9 9 9 8 8 8 8 8 8
8 7 7 6 6 6 6 6 6 6 7 8 8 9 10 11 11 12 12 11 11 11 11 11 10 10 10 10 9 9 9 9 9 9 9 9 9 9 9 8 8 8 8 8 8 8 7 7 7
7 6 5 5 5 5 6 6 7 7 7 8 8 8 9 10 10 11 10 10 10 10 10 10 10 10 9 9 9 9 8 8 8 8 8 8 8 8 8 8 8 8 8 7 7 7 7 7 6
6 6 5 5 4 5 6 6 6 7 7 8 8 8 8 9 9 10 10 10 10 10 10 9 9 9 9 9 8 8 8 8 8 8 8 8 8 7 7 7 7 7 7 7 7 7 6 6 6
5 5 5 4 4 4 5 6 6 7 6 6 6 6 7 8 8 9 9 9 9 9 9 9 9 9 8 8 8 8 7 7 7 7 7 7 7 7 7 7 7 7 7 7 6 6 6 6 6
6 5 4 4 4 5 6 5 5 6 5 5 5 5 6 7 7 8 8 8 8 8 8 8 8 8 8 8 7 7 7 7 7 7 7 6 6 6 6 6 6 6 6 6 6 6 6 5 5
5 5 4 3 3 4 5 5 6 5 5 4 4 5 5 6 6 7 7 7 7 8 7 7 7 7 7 7 7 7 6 6 6 6 6 6 6 6 6 6 6 6 6 6 5 5 5 5 5
4 4 3 3 3 3 3 5 6 4 4 4 4 5 5 5 6 6 6 6 6 7 7 7 7 7 6 6 6 6 6 6 6 6 6 6 5 5 5 5 5 5 5 5 5 5 5 5 4
Wind_Speed
3 3 3 4 5 4 4 7 5 3 2 2 3 8 9 6 4 6 3 7 10 10 13 16 17 16 16 15 15 15 15 15 14 14 14 14 14 14 14 14 13 12 12 11 11 11 11 10 10
2 2 4 4 5 3 6 7 7 6 5 5 5 6 7 5 3 7 5 9 12 12 13 15 17 16 16 16 15 15 15 14 14 14 14 14 13 13 13 13 12 12 11 11 10 10 10 9 9
1 1 4 4 5 7 6 5 8 5 2 3 4 5 6 6 5 5 7 11 11 10 13 16 18 17 17 16 16 15 15 14 14 14 13 13 13 13 12 12 12 11 11 10 10 9 8 8 7
2 3 4 3 6 7 6 4 3 3 2 3 6 6 4 1 5 6 10 12 12 9 12 16 17 17 16 16 15 14 14 14 14 13 13 12 12 12 12 11 11 11 10 9 9 8 7 7 6
3 4 3 2 6 6 6 6 3 2 2 3 6 6 3 4 7 11 12 13 12 9 11 15 17 16 16 15 15 14 14 13 13 12 12 12 11 11 11 10 10 10 9 8 8 7 6 6 5
3 4 4 5 6 5 5 5 3 3 3 3 6 6 2 1 8 11 12 11 11 10 10 13 16 16 15 15 14 14 13 13 12 11 11 11 10 10 9 9 9 8 8 7 6 6 5 5 5
4 5 6 6 4 5 5 3 4 5 4 4 7 7 4 3 7 10 11 10 9 9 9 10 12 14 14 14 14 13 12 12 11 11 11 10 10 9 8 8 7 7 7 6 5 5 4 4 4
5 4 4 5 5 5 3 1 1 5 4 2 5 10 7 7 8 10 10 9 8 8 7 7 10 11 11 12 13 12 12 11 11 10 10 10 9 8 8 7 7 6 6 5 4 4 3 3 3
4 3 5 6 6 4 1 2 2 1 5 3 2 5 7 12 12 12 9 7 7 7 6 6 7 9 10 10 10 11 10 10 10 9 9 8 7 7 6 6 6 6 5 4 3 3 2 1 1
4 5 8 4 3 2 1 2 1 3 4 3 4 4 9 12 13 13 12 10 9 8 6 5 6 7 8 8 8 8 8 8 8 7 8 7 6 5 5 5 5 4 3 3 2 2 1 1 1
7 8 5 4 2 1 1 1 1 5 2 5 7 9 11 11 11 11 11 10 10 9 7 6 6 6 6 6 6 6 6 6 6 6 7 7 6 5 5 4 3 3 2 2 1 1 1 1 1
6 6 6 3 1 1 1 0 1 3 6 5 9 13 12 12 12 12 12 10 9 9 7 6 6 6 6 6 5 5 5 5 4 5 6 6 4 3 3 3 2 2 2 1 1 0 1 1 2
6 4 5 5 2 2 1 2 2 5 5 3 7 10 12 12 11 9 9 9 9 8 8 7 6 6 5 5 4 5 4 4 5 5 5 6 4 3 2 2 2 1 1 1 1 0 1 1 2
6 5 4 3 3 2 3 3 2 7 3 4 8 10 11 12 11 8 8 9 9 9 9 7 7 6 6 4 3 4 5 5 5 5 5 5 5 4 3 2 1 0 0 0 1 1 1 1 1
2 2 4 5 5 4 2 6 8 8 4 5 7 9 10 9 9 11 12 11 10 10 9 8 8 6 6 5 4 4 5 6 4 4 5 5 5 4 3 2 1 1 1 0 0 1 1 1 2
2 3 5 5 6 5 7 10 9 6 7 8 8 8 9 9 10 10 10 10 9 9 9 8 7 6 6 5 4 4 5 5 4 4 4 4 5 5 3 2 2 2 1 1 1 1 1 2 2
2 5 6 5 5 6 8 9 8 5 8 9 9 9 9 8 8 8 9 10 10 10 10 8 7 7 6 5 3 3 4 4 4 4 4 4 4 5 4 3 2 2 1 1 1 1 1 2 2
8 6 5 7 5 6 7 9 9 6 7 9 9 9 9 9 10 9 9 9 10 9 9 8 7 6 5 4 3 2 1 2 3 4 4 4 4 4 4 3 2 2 2 1 1 1 1 1 2
6 5 5 6 4 6 9 11 11 8 6 8 8 9 9 10 9 7 8 8 8 8 8 8 7 6 5 3 3 2 2 2 2 3 4 4 4 4 3 2 3 3 2 2 2 2 1 1 1
5 5 5 3 2 4 6 10 10 9 8 9 10 11 11 9 6 6 7 8 9 10 9 8 8 7 6 4 3 2 2 2 2 2 3 4 4 4 3 3 3 3 3 2 2 2 1 1 1
9 8 6 4 2 2 1 7 8 6 5 6 7 9 9 11 11 9 9 8 8 9 10 9 8 7 6 4 3 2 2 1 0 1 2 3 4 4 4 4 3 3 3 3 3 3 3 2 1
9 7 7 5 2 3 3 5 7 6 5 7 7 8 9 9 9 9 10 10 10 9 8 8 7 6 5 5 5 5 3 3 3 3 3 3 3 4 5 4 4 3 3 4 4 3 2 3 2
6 3 4 4 4 3 3 4 8 4 6 8 7 8 8 8 9 10 10 11 9 8 8 7 7 5 5 5 6 5 3 3 2 1 2 3 3 4 4 4 4 3 3 4 4 3 3 3 3
4 4 4 3 3 5 8 7 7 5 8 7 6 5 5 7 7 8 7 7 7 6 6 6 6 5 4 5 5 5 4 3 2 2 3 3 2 3 4 4 4 4 3 4 4 5 4 4 4
5 6 2 1 3 7 5 7 8 7 6 7 7 5 4 5 7 7 7 7 7 7 6 6 6 4 4 4 4 4 4 4 4 4 4 3 3 3 4 3 3 3 4 4 4 4 4 5 5
7 8 7 7 7 4 4 8 6 5 3 3 4 4 4 4 5 6 7 7 7 7 6 6 6 4 4 4 3 2 2 2 3 3 3 4 3 4 4 3 3 4 4 4 4 4 4 4 5
6 6 5 4 2 2 5 4 4 3 3 3 4 5 5 4 4 5 5 6 6 6 5 6 6 4 4 3 2 2 1 2 2 2 2 2 3 3 3 3 4 4 4 4 4 4 5 4 4
4 6 4 5 6 5 4 4 4 3 2 3 4 4 4 4 4 4 4 4 4 4 4 4 5 5 3 3 2 2 1 2 2 1 2 3 3 3 3 3 3 4 4 4 4 4 4 4 5
4 4 4 4 4 5 4 5 3 5 4 5 4 4 5 4 4 4 4 3 4 4 4 3 3 3 2 2 2 1 1 1 1 1 2 3 3 3 3 4 4 4 4 3 3 4 5 5 5
3 5 6 5 4 4 4 4 3 2 4 6 5 4 4 5 4 4 5 5 5 4 4 3 2 2 1 1 1 1 0 0 0 1 2 2 2 2 3 3 3 4 3 3 3 5 5 5 5
Wind_Direction
326 6 73 63 66 71 228 240 232 238 178 165 112 109 111 107 134 155 153 147 137 139 141 140 136 133 129 124 121 119 117 114 111 110 108 107 105 104 104 104 101 100 100 100 98 100 97 96 95
25 51 64 70 110 168 246 239 228 227 195 150 104 96 88 82 85 114 134 144 135 136 137 139 136 132 128 125 122 120 119 116 114 112 111 110 108 106 105 105 103 98 97 97 97 99 96 96 96
40 97 95 98 156 190 223 233 209 222 214 155 90 69 104 127 132 141 152 140 128 130 136 138 136 133 130 127 124 122 121 119 116 114 113 113 112 109 107 105 103 99 96 95 96 96 96 95 96
82 73 70 116 215 224 221 228 185 161 92 85 108 76 74 112 157 147 138 131 124 127 134 137 136 134 132 129 126 123 121 120 119 116 116 115 114 111 108 105 104 102 100 96 94 92 94 92 93
74 97 117 210 235 245 238 240 232 176 147 110 107 100 56 353 115 126 132 131 129 128 131 137 136 135 132 130 128 125 123 122 120 118 117 116 115 113 111 107 105 102 102 99 96 92 92 93 91
83 96 140 212 237 253 254 236 207 183 160 118 109 108 108 114 118 130 132 130 131 131 127 133 136 135 134 132 129 127 125 124 123 123 121 118 116 115 113 113 111 107 104 100 96 91 91 92 87
129 137 182 203 224 247 251 220 177 171 158 162 134 114 135 167 141 133 128 125 123 123 122 123 129 132 133 132 131 129 127 126 124 123 122 118 114 114 116 116 115 112 110 105 100 92 88 84 77
151 142 200 213 208 232 261 159 158 153 161 131 121 137 167 185 145 125 118 116 116 118 120 118 121 124 127 129 130 130 129 128 125 123 121 119 117 115 115 115 116 117 115 110 104 96 92 82 65
130 128 208 214 202 215 299 98 11 55 103 75 88 161 164 146 132 124 120 116 122 124 122 121 120 121 124 127 132 130 130 131 127 123 123 120 115 114 114 114 115 115 114 110 101 89 76 63 40
139 188 217 228 203 184 48 91 121 77 79 73 52 70 121 136 138 141 146 149 148 147 144 138 131 132 132 130 126 124 124 123 122 121 122 118 115 114 112 110 113 113 114 113 99 76 48 29 10
173 199 221 258 256 181 71 17 27 122 159 177 161 149 143 143 147 152 157 158 159 155 151 148 144 140 136 129 131 122 120 120 121 124 122 118 110 103 98 94 94 97 101 93 86 45 16 5 335
190 225 218 236 257 162 168 105 359 188 202 179 167 159 157 161 166 168 166 165 160 156 156 153 146 142 143 139 139 137 131 126 124 130 131 122 113 108 105 99 86 84 91 81 62 11 322 305 285
219 234 225 226 230 221 181 203 234 253 239 170 153 162 172 176 179 176 166 161 157 159 161 160 155 151 148 143 147 142 142 138 134 131 137 136 131 139 127 120 105 87 82 98 75 348 291 296 288
211 224 248 244 232 225 211 251 218 246 215 164 164 178 184 183 178 168 163 164 167 166 166 165 160 157 148 152 156 154 152 146 138 138 144 145 143 147 149 152 145 168 159 175 183 237 257 269 280
171 202 277 246 214 212 163 269 232 229 191 194 192 189 191 192 180 177 177 173 173 170 168 168 164 153 151 152 159 154 157 150 148 153 154 152 155 157 157 167 184 219 235 243 280 346 360 317 307
132 172 235 247 194 181 163 246 249 224 189 209 207 198 196 198 194 189 182 175 171 166 167 170 165 156 154 153 153 153 156 156 162 162 163 169 171 170 161 176 201 217 199 164 218 274 323 318 313
177 201 216 249 203 173 182 237 254 225 192 212 213 204 202 204 206 198 185 178 173 170 167 168 161 161 160 154 149 152 153 158 165 166 170 177 179 179 171 188 206 196 172 193 235 258 246 293 308
195 196 206 216 215 180 204 239 259 253 206 215 213 207 202 204 211 199 189 180 173 168 164 163 158 159 150 137 124 113 126 171 168 177 184 183 184 186 180 191 202 184 182 212 220 238 265 256 279
171 178 213 230 218 188 220 240 252 255 231 221 214 210 207 212 211 189 179 169 160 160 161 162 157 161 151 145 151 160 192 211 214 203 198 192 193 197 188 200 201 191 199 210 215 227 275 298 321
212 218 231 269 249 206 234 253 257 248 230 215 210 210 209 210 197 181 171 163 164 168 170 168 167 168 169 172 173 173 181 204 222 214 208 200 196 204 199 201 210 204 201 217 218 205 217 288 10
223 214 212 219 341 347 282 282 260 257 236 226 215 205 201 199 193 186 179 177 171 171 173 174 173 171 167 158 134 99 76 55 295 245 244 229 213 212 207 206 209 212 203 212 225 208 199 230 266
228 215 202 199 178 254 187 261 268 245 246 233 224 210 203 198 189 183 179 178 179 179 173 168 168 166 163 156 159 165 180 207 225 229 239 253 232 222 216 211 211 215 218 219 225 218 221 203 237
206 188 188 194 183 239 219 219 275 255 237 239 231 216 206 192 179 179 180 178 175 170 167 164 159 160 162 165 169 172 194 216 232 236 239 252 250 233 224 217 212 216 225 228 228 230 235 220 222
148 88 71 62 111 237 216 197 262 233 225 231 232 219 199 175 167 168 164 153 152 154 152 152 153 161 162 163 168 173 185 200 214 239 237 249 253 244 234 226 215 220 229 235 230 227 229 235 236
135 120 118 216 222 239 205 199 244 247 231 211 208 195 171 157 151 147 146 145 147 150 151 152 153 159 164 163 172 182 190 199 212 226 230 237 245 250 247 237 226 230 229 231 228 230 231 232 232
179 162 172 189 207 247 204 218 243 272 249 186 165 143 120 115 134 142 152 153 154 155 154 155 159 163 166 168 182 186 188 205 227 231 228 231 235 241 244 237 237 237 231 235 232 234 236 237 232
157 188 172 146 162 213 235 255 302 350 48 86 105 103 112 112 116 129 134 142 151 156 159 160 160 160 165 167 168 179 200 216 230 243 235 239 245 249 239 240 243 248 240 236 237 238 238 241 241
159 148 135 160 173 217 245 236 232 235 199 139 122 117 107 98 91 100 110 121 136 146 144 143 150 156 161 157 172 183 214 229 229 234 251 249 250 253 252 255 251 255 254 240 235 242 243 242 251
150 162 164 165 177 176 211 253 230 203 186 161 150 138 120 110 99 92 86 89 102 98 101 109 123 128 137 153 165 163 213 232 230 245 258 253 255 257 254 258 261 263 262 257 248 249 248 249 258
185 180 161 174 212 193 182 258 315 190 154 140 136 120 112 105 95 89 82 75 75 76 77 79 93 111 136 152 147 154 133 32 254 268 275 272 275 273 263 258 263 267 267 263 261 262 259 253 261
Height
1498 1500 1502 1505 1509 1518 1517 1506 1497 1492 1491 1490 1489 1490 1492 1497 1501 1507 1505 1505 1508 1511 1513 1516 1518 1520 1522 1523 1525 1526 1527 1528 1529 1530 1531 1532 1533 1533 1534 1535 1535 1536 1536 1537 1537 1538 1538 1538 1538
1498 1500 1503 1504 1512 1521 1514 1500 1494 1489 1488 1489 1489 1490 1492 1497 1498 1500 1502 1506 1509 1511 1513 1515 1518 1520 1521 1523 1525 1526 1527 1528 1529 1530 1531 1532 1533 1534 1534 1535 1535 1536 1537 1537 1537 1538 1538 1538 1538
1497 1499 1502 1505 1512 1513 1504 1492 1489 1486 1487 1488 1490 1492 1494 1497 1498 1500 1503 1506 1509 1511 1513 1515 1518 1519 1521 1523 1524 1526 1527 1528 1529 1530 1531 1532 1533 1534 1534 1535 1536 1536 1537 1537 1537 1538 1538 1538 1538
1497 1500 1502 1507 1507 1500 1493 1487 1485 1485 1486 1487 1488 1493 1496 1499 1499 1501 1503 1506 1509 1511 1514 1515 1517 1519 1521 1523 1524 1526 1527 1528 1529 1530 1531 1532 1533 1534 1534 1535 1535 1536 1537 1537 1537 1538 1538 1538 1538
1496 1498 1504 1507 1502 1494 1488 1485 1486 1485 1485 1487 1488 1493 1496 1499 1500 1502 1504 1507 1509 1511 1513 1516 1518 1519 1521 1523 1524 1525 1527 1528 1529 1530 1531 1532 1532 1533 1534 1535 1535 1536 1536 1537 1537 1537 1537 1537 1537
1495 1496 1506 1507 1499 1490 1485 1484 1485 1485 1485 1486 1488 1493 1497 1499 1500 1502 1505 1507 1510 1511 1513 1516 1518 1519 1521 1523 1524 1525 1526 1527 1528 1529 1530 1531 1532 1533 1533 1534 1535 1535 1536 1536 1536 1536 1536 1537 1537
1494 1497 1500 1498 1495 1490 1484 1482 1483 1484 1485 1486 1487 1492 1497 1499 1501 1503 1505 1508 1510 1512 1513 1515 1517 1519 1521 1522 1524 1525 1526 1527 1528 1529 1530 1531 1531 1532 1533 1533 1534 1534 1535 1535 1535 1535 1536 1536 1536
1491 1495 1495 1494 1491 1487 1482 1481 1482 1482 1484 1486 1486 1489 1494 1497 1500 1503 1505 1507 1510 1511 1513 1515 1517 1519 1520 1522 1523 1524 1526 1527 1528 1528 1529 1530 1531 1531 1532 1532 1533 1533 1534 1534 1534 1534 1534 1535 1535
1490 1496 1495 1490 1487 1484 1481 1481 1482 1482 1483 1484 1486 1487 1490 1495 1498 1501 1504 1506 1509 1511 1513 1514 1516 1518 1520 1521 1522 1524 1525 1526 1527 1528 1529 1529 1530 1530 1531 1531 1532 1532 1532 1533 1533 1533 1533 1533 1533
1487 1493 1488 1483 1481 1481 1480 1480 1481 1482 1483 1484 1485 1487 1490 1493 1496 1499 1501 1503 1506 1509 1511 1513 1515 1517 1518 1520 1522 1523 1524 1525 1526 1527 1528 1529 1529 1530 1530 1530 1531 1531 1531 1531 1531 1531 1531 1531 1531
1483 1486 1483 1481 1480 1479 1480 1480 1481 1481 1483 1483 1484 1486 1489 1492 1495 1497 1499 1502 1504 1507 1509 1512 1514 1516 1517 1519 1520 1522 1523 1524 1525 1526 1527 1527 1528 1528 1529 1529 1529 1529 1529 1529 1529 1529 1529 1529 1529
1481 1480 1480 1479 1479 1479 1480 1480 1481 1481 1481 1482 1483 1485 1487 1490 1493 1495 1498 1500 1503 1506 1508 1510 1512 1514 1516 1518 1519 1521 1522 1523 1524 1525 1525 1526 1527 1527 1527 1527 1527 1527 1527 1527 1527 1527 1527 1527 1527
1479 1478 1478 1478 1479 1479 1479 1480 1480 1479 1480 1481 1483 1485 1486 1488 1491 1494 1497 1499 1501 1504 1506 1509 1511 1513 1514 1516 1518 1519 1520 1522 1523 1523 1524 1525 1525 1525 1525 1525 1525 1525 1525 1525 1525 1525 1525 1525 1525
1475 1476 1476 1477 1477 1478 1479 1479 1479 1476 1478 1480 1481 1483 1485 1487 1489 1492 1495 1497 1499 1502 1504 1507 1509 1511 1513 1514 1516 1517 1519 1520 1521 1522 1522 1523 1523 1523 1523 1523 1523 1523 1523 1523 1523 1523 1523 1523 1523
1474 1477 1476 1475 1475 1476 1478 1479 1475 1473 1476 1477 1479 1481 1483 1485 1487 1489 1491 1494 1497 1500 1502 1504 1507 1509 1511 1512 1514 1516 1517 1518 1519 1520 1520 1521 1521 1521 1521 1521 1521 1521 1521 1521 1521 1521 1520 1520 1520
1474 1478 1480 1474 1473 1474 1480 1479 1470 1471 1473 1474 1475 1478 1480 1482 1485 1487 1490 1492 1495 1497 1500 1502 1505 1507 1509 1510 1512 1513 1514 1515 1516 1517 1518 1518 1518 1519 1518 1518 1518 1518 1518 1518 1518 1518 1517 1517 1517
1476 1481 1479 1475 1471 1472 1476 1475 1468 1468 1470 1471 1472 1474 1477 1479 1482 1484 1487 1490 1492 1495 1497 1500 1502 1504 1506 1508 1510 1511 1512 1513 1514 1514 1515 1515 1516 1516 1516 1516 1516 1516 1515 1515 1515 1515 1514 1514 1513
1477 1478 1476 1474 1469 1472 1474 1472 1467 1466 1467 1468 1469 1471 1473 1475 1477 1481 1484 1487 1490 1492 1495 1497 1499 1502 1504 1505 1507 1508 1509 1510 1511 1512 1512 1513 1513 1513 1513 1513 1513 1513 1512 1512 1512 1512 1511 1511 1510
1469 1472 1473 1471 1467 1470 1471 1469 1466 1464 1465 1465 1466 1467 1469 1471 1474 1478 1481 1483 1486 1489 1491 1493 1496 1498 1500 1502 1503 1504 1505 1507 1508 1509 1509 1510 1510 1510 1510 1510 1510 1510 1509 1509 1509 1508 1508 1507 1507
1468 1471 1472 1469 1466 1468 1470 1468 1463 1461 1460 1460 1461 1463 1465 1468 1471 1474 1477 1479 1482 1484 1487 1490 1492 1495 1497 1498 1500 1501 1502 1504 1505 1506 1506 1506 1507 1507 1507 1507 1507 1507 1506 1506 1506 1505 1504 1504 1504
1466 1470 1471 1470 1468 1467 1469 1468 1463 1458 1456 1457 1458 1458 1461 1463 1465 1469 1472 1475 1478 1480 1483 1486 1488 1491 1493 1495 1497 1498 1499 1500 1501 1502 1502 1503 1503 1504 1504 1504 1504 1503 1503 1502 1502 1502 1501 1500 1501
1465 1462 1465 1467 1473 1477 1473 1479 1464 1458 1456 1454 1454 1454 1456 1458 1461 1464 1467 1470 1473 1476 1479 1482 1485 1487 1490 1491 1493 1494 1494 1495 1496 1498 1499 1499 1500 1500 1500 1500 1500 1500 1499 1499 1499 1499 1498 1497 1497
1460 1459 1463 1466 1472 1477 1475 1479 1467 1459 1456 1452 1450 1450 1451 1454 1456 1459 1463 1466 1469 1473 1476 1478 1481 1484 1486 1488 1489 1490 1491 1492 1493 1494 1495 1495 1496 1496 1497 1497 1496 1496 1496 1495 1495 1495 1494 1494 1493
1457 1461 1466 1471 1475 1479 1472 1476 1467 1460 1452 1449 1448 1447 1448 1450 1453 1456 1459 1463 1466 1469 1472 1475 1478 1480 1483 1484 1486 1487 1488 1489 1489 1490 1491 1491 1492 1492 1492 1492 1492 1492 1492 1491 1491 1490 1490 1490 1489
1457 1466 1478 1481 1483 1478 1467 1468 1460 1450 1447 1445 1445 1445 1446 1448 1451 1453 1456 1460 1463 1466 1469 1472 1475 1477 1479 1481 1482 1484 1485 1485 1486 1486 1487 1487 1487 1487 1488 1488 1488 1488 1487 1487 1487 1486 1486 1485 1485
1456 1461 1472 1479 1480 1474 1465 1464 1454 1446 1443 1442 1443 1445 1446 1448 1450 1452 1455 1458 1461 1464 1467 1469 1472 1474 1476 1478 1479 1481 1481 1482 1482 1482 1483 1483 1483 1483 1483 1483 1483 1483 1483 1483 1482 1482 1481 1481 1480
1456 1459 1460 1470 1473 1473 1465 1458 1451 1445 1443 1443 1444 1445 1446 1448 1450 1451 1454 1457 1459 1462 1464 1467 1469 1472 1473 1475 1476 1478 1478 1478 1478 1479 1479 1479 1479 1479 1479 1479 1479 1479 1479 1478 1478 1477 1476 1476 1475
1450 1453 1462 1468 1471 1467 1460 1458 1454 1448 1447 1446 1447 1447 1448 1449 1450 1452 1454 1456 1458 1461 1463 1465 1467 1469 1471 1473 1474 1474 1475 1475 1475 1475 1475 1475 1475 1475 1475 1475 1474 1474 1474 1473 1473 1472 1471 1471 1470
1453 1455 1457 1463 1465 1466 1463 1457 1446 1446 1446 1447 1448 1448 1449 1450 1451 1452 1454 1456 1458 1460 1462 1464 1466 1468 1469 1470 1471 1472 1472 1472 1472 1471 1471 1471 1471 1471 1470 1470 1470 1469 1469 1468 1468 1468 1467 1466 1465
1450 1451 1455 1462 1464 1464 1464 1459 1444 1444 1445 1447 1449 1450 1451 1452 1453 1454 1455 1457 1458 1460 1462 1463 1465 1466 1467 1468 1469 1469 1469 1469 1469 1468 1468 1468 1467 1467 1466 1466 1465 1465 1464 1464 1463 1462 1462 1461 1460